sat.trackr.live / text

‹ back to catalog

STARLINK-32561

NORAD 62026 · 2024-213U

PAYLOAD ACTIVE UNKNOWN

§ Identity

Operator
Country
US
Launch date
2024-11-18
Launch site
AFWTR
Launch vehicle
Mass (kg)
RCS (m²)

Purposes: comms

External: N2YO · Heavens-Above · Gunter

§ Orbital elements

Epoch: 2026-05-25T02:19:12.890208Z

Period
94.10 min
Inclination
53.1574°
Eccentricity
0.0001111
Mean motion
15.30208631 rev/d
Perigee alt
474.4 km
Apogee alt
476.0 km
Semi-major
6,853.3 km
B*
5.7619e-4
RAAN
173.1832°
Arg perigee
92.1238°
Mean anomaly
267.9890°
Rev number
8,485

§ Raw data

STARLINK-325611 62026U 24213U   26145.09667697  .00016749  00000+0  57619-3 0  99932 62026  53.1574 173.1832 0001111  92.1238 267.9890 15.30208631 84852

JSON: /api/v1/satellites/62026 · /tle

For live sub-satellite position, see the globe view (requires WebGL).

§ Visibility from observer

Set your observer location to see the next 7 days of passes ≥ 10°. The values pass through the URL so the page stays shareable.

No JS? Fill the form by hand. The geolocation button needs JavaScript.